RH
88 90 91 91 93 94 94 91 97 94 92 82 94 93 95 91 83 63 44 35 31 31 26 19 19 19 21 24 25 23 25 27 22 20 17 17 17 18 18 16 18 18 18 23 26
83 84 87 90 92 93 93 92 91 98 96 92 96 94 94 93 83 51 42 30 33 29 22 16 16 17 19 23 26 25 30 26 18 17 18 16 17 15 19 17 18 19 21 26 29
85 82 84 87 90 91 93 94 93 90 99 96 98 96 93 88 52 30 31 32 44 24 19 17 15 16 21 21 26 26 32 22 19 15 16 17 18 16 20 20 16 17 18 26 29
86 86 84 86 89 88 92 95 95 95 98 98 98 98 85 74 52 20 21 39 46 26 20 19 19 23 27 28 22 31 24 21 20 19 22 23 20 23 21 20 16 15 15 23 28
85 85 88 87 90 92 92 94 96 98 96 98 96 99 77 56 47 29 18 24 38 20 20 22 25 25 31 26 24 29 24 22 21 23 24 22 25 24 23 19 17 17 21 22 25
83 83 84 88 90 93 93 93 94 100 99 93 92 99 72 64 38 28 22 18 17 16 23 25 27 23 26 25 26 24 23 22 21 21 22 28 28 28 29 26 25 22 24 23 25
88 88 88 90 93 92 93 91 92 100 100 92 84 91 66 45 36 23 18 19 16 17 25 26 25 26 28 31 24 29 38 31 30 30 36 39 47 43 31 28 33 30 28 27 26
94 95 93 85 92 95 92 68 55 74 85 86 70 85 53 44 43 34 20 20 20 23 26 30 30 30 34 32 35 41 38 50 38 40 40 41 38 28 29 31 30 26 24 26 29
96 98 98 94 82 86 87 57 42 74 80 72 85 60 49 47 43 38 26 22 23 27 29 30 33 38 41 47 48 45 51 45 38 36 38 38 35 25 26 26 24 22 20 20 25
93 96 97 99 97 75 85 61 64 90 76 90 66 64 46 39 24 24 22 21 24 28 34 35 37 46 46 50 64 44 47 37 39 34 33 34 35 27 24 24 26 28 25 30 81
94 96 95 96 96 80 82 56 42 58 59 47 39 40 39 27 23 22 22 23 26 35 46 40 48 55 40 40 40 39 37 38 31 30 40 39 35 28 22 22 24 25 30 81 96
82 86 87 94 92 71 63 58 52 76 64 36 37 36 37 30 38 28 24 34 38 47 37 45 51 36 33 35 41 43 44 41 32 28 30 28 30 31 26 40 55 61 61 76 60
87 94 95 90 77 67 60 62 86 90 71 38 37 41 40 43 48 40 28 34 35 40 35 46 35 29 33 39 44 42 43 39 38 27 26 29 40 52 47 46 38 47 70 67 94
89 94 90 92 73 65 60 78 94 98 76 31 52 52 41 45 53 31 27 29 34 40 41 40 31 34 36 39 38 51 30 32 34 37 58 31 69 50 46 70 39 37 41 48 69
92 92 94 94 79 64 56 97 96 99 84 25 50 25 31 39 31 29 22 26 47 42 38 42 34 32 32 33 28 39 28 30 33 41 48 44 74 42 39 54 35 32 33 38 72
93 95 95 81 81 70 71 97 98 100 84 46 37 36 36 33 35 32 28 28 34 49 42 43 33 32 35 26 24 28 35 39 40 48 87 69 69 40 47 66 32 33 31 26 57
91 94 95 85 76 89 92 97 99 96 32 36 42 36 38 43 55 48 74 58 64 83 72 45 44 32 29 38 31 32 50 83 88 91 78 50 54 54 44 36 65 78 42 47 71
79 78 83 82 86 87 93 100 93 87 34 55 57 44 49 68 62 57 61 68 53 56 65 50 60 38 31 35 42 42 51 80 78 63 55 47 68 47 33 35 69 67 71 35 56
76 72 76 72 81 94 99 96 61 85 60 44 71 70 83 66 69 58 53 48 51 61 75 73 50 32 29 28 30 45 60 45 74 56 59 41 36 39 28 28 30 51 71 70 76
80 82 70 93 93 86 100 88 48 50 50 53 63 57 76 89 81 60 51 55 67 64 71 77 83 48 37 30 30 36 35 67 62 85 71 40 38 30 34 32 22 50 77 82 81
73 86 78 89 98 98 97 68 45 37 45 56 84 75 51 68 57 61 65 62 75 81 63 78 96 68 45 50 47 46 61 53 75 74 80 59 41 64 78 73 66 69 72 85 88
76 90 87 92 97 94 81 52 64 52 54 55 58 78 67 62 64 66 74 69 74 67 83 65 86 83 61 43 39 34 41 54 85 90 71 71 57 48 66 71 70 64 76 84 87
74 88 88 92 95 94 56 57 58 53 68 96 76 62 66 63 75 50 67 89 79 71 86 75 88 81 88 74 49 49 39 51 76 85 78 70 50 33 44 56 56 68 82 86 87
84 94 77 89 100 100 99 77 75 67 62 63 66 65 62 67 62 70 89 89 86 79 76 66 84 89 70 87 78 85 70 54 73 80 64 65 50 37 34 45 62 76 84 87 87
74 81 86 91 87 96 99 98 67 77 75 72 78 78 76 87 85 79 92 95 81 85 91 91 84 76 67 56 58 68 77 74 88 68 85 58 70 58 54 79 68 81 85 86 87
81 82 95 97 72 99 93 86 70 81 89 75 95 63 79 82 76 84 89 75 69 75 92 94 81 72 77 53 56 67 58 63 74 75 68 67 73 50 53 41 57 84 88 88 88
71 85 100 82 92 91 96 89 72 90 98 94 84 93 92 92 73 68 73 78 76 87 86 89 85 80 72 61 82 83 82 73 67 71 64 84 60 47 43 27 70 85 88 90 89
Wind_Speed
19 21 21 22 23 22 22 22 24 22 21 20 18 18 18 19 23 20 15 2 5 5 3 4 6 7 7 6 6 3 6 9 15 9 8 5 6 3 2 5 2 4 2 6 17
20 20 21 22 22 23 23 23 23 23 22 21 18 18 15 17 19 21 12 8 6 4 6 9 7 8 6 7 4 7 9 11 7 5 6 4 5 2 4 7 8 7 6 6 17
21 21 21 21 22 22 22 22 23 22 23 20 18 16 12 14 17 2 5 7 5 5 6 6 5 8 10 6 7 6 10 9 5 5 4 6 6 6 7 11 11 10 10 12 16
21 22 22 23 24 24 24 23 22 23 22 22 18 15 11 9 6 5 6 4 5 5 6 6 8 9 8 11 11 9 15 12 8 1 5 8 8 8 11 16 6 4 5 12 15
21 22 23 21 24 24 25 25 24 22 21 19 17 13 7 8 13 6 6 5 6 6 9 9 10 10 11 6 7 14 14 9 10 8 9 10 13 13 16 13 10 6 6 9 12
21 21 22 23 24 26 27 27 26 26 23 17 16 9 9 15 2 5 6 6 8 9 8 7 5 5 9 8 10 3 8 12 10 12 9 11 15 13 11 3 8 14 12 12 12
23 23 23 23 24 26 27 28 29 27 23 14 11 7 11 15 4 5 7 6 6 7 6 3 4 6 2 8 8 9 12 13 16 16 11 3 14 17 18 12 8 10 11 11 10
25 25 24 25 25 27 29 31 34 26 14 11 5 5 8 2 5 10 9 8 5 3 1 2 1 5 6 3 6 9 12 8 8 6 4 6 9 6 5 6 7 8 6 6 8
28 28 28 27 26 27 29 33 29 15 9 5 6 9 10 3 9 11 14 10 9 5 3 2 3 6 3 9 10 12 10 14 7 9 4 11 7 5 4 4 7 8 10 8 7
29 29 27 27 28 28 30 30 20 9 6 6 3 4 9 8 8 10 11 11 8 7 4 6 5 8 8 11 8 10 14 9 8 7 7 10 16 16 15 15 15 12 13 9 2
27 27 28 27 26 28 26 18 7 8 14 9 6 7 3 7 10 11 12 12 8 8 10 9 8 10 14 15 16 9 10 11 10 1 2 12 17 20 14 14 15 13 11 2 5
29 30 32 30 28 26 21 10 8 6 10 15 22 20 12 13 9 11 12 10 10 12 12 5 12 15 6 5 9 11 12 13 11 4 3 12 18 17 15 6 3 4 7 2 5
30 33 27 25 29 22 14 15 6 5 8 14 15 16 17 16 13 15 14 12 9 13 12 14 2 5 4 5 8 11 12 11 11 7 14 11 14 6 5 5 3 2 5 3 3
29 28 30 24 18 10 12 2 5 2 6 11 8 8 18 11 13 6 17 8 8 11 12 10 3 6 9 12 10 11 3 6 6 6 4 1 6 9 10 5 6 6 6 5 3
28 27 29 19 19 17 18 3 7 4 5 2 10 4 15 14 15 10 8 6 10 9 5 4 7 7 8 7 4 1 2 3 6 8 9 9 4 3 8 5 8 7 7 4 4
28 26 27 19 14 18 14 4 2 6 8 5 4 9 14 14 7 9 8 4 2 5 8 13 4 3 6 3 2 5 2 6 5 4 5 6 6 4 5 3 8 7 5 1 5
29 28 31 23 13 10 6 2 4 8 2 5 4 9 15 12 10 11 9 10 7 5 8 8 11 3 5 6 5 6 3 3 4 4 3 4 5 8 5 6 3 5 2 6 1
33 34 18 17 15 8 7 4 5 5 11 6 2 8 13 9 6 10 12 8 6 3 2 6 6 11 8 7 2 11 5 4 5 3 3 5 6 1 4 6 6 4 0 5 7
33 21 14 10 5 5 1 4 4 3 12 4 4 4 6 4 3 8 11 7 4 5 6 4 3 5 1 1 3 5 6 3 3 3 4 7 7 5 7 7 6 6 3 6 8
24 16 7 13 3 4 2 4 5 4 11 6 8 7 8 9 7 7 7 3 4 1 1 2 2 2 4 2 2 4 3 2 3 4 5 5 7 2 9 7 2 6 6 6 9
14 6 5 11 1 1 3 5 7 9 8 4 2 7 4 4 5 4 1 5 2 4 1 3 1 4 3 8 7 4 3 4 3 3 3 5 0 2 7 5 3 5 5 6 9
6 5 8 8 2 3 5 3 5 8 6 4 3 1 5 3 4 3 4 1 3 4 3 2 1 4 2 3 2 5 6 9 4 5 3 3 5 3 6 4 2 4 5 6 8
8 3 3 1 3 3 7 7 5 9 2 4 4 2 7 3 1 6 5 4 4 2 2 3 3 3 3 1 4 5 8 7 2 1 8 5 0 4 3 3 3 3 5 7 9
4 4 2 2 1 4 7 5 3 4 2 3 2 3 2 3 2 3 4 2 3 2 1 1 2 5 7 3 2 3 5 9 8 5 7 11 12 5 2 3 4 3 5 7 8
1 3 3 6 7 13 8 4 6 3 4 5 1 4 3 2 3 2 6 4 3 2 3 2 4 3 11 12 10 12 9 10 14 16 8 9 7 6 8 4 3 2 5 7 9
3 3 2 7 11 8 3 3 7 1 2 3 3 2 1 1 2 4 3 5 2 3 2 1 2 5 7 9 9 14 15 15 15 18 18 18 20 13 3 2 2 3 6 7 9
4 1 1 6 6 7 5 7 8 2 1 5 0 2 2 5 7 8 7 6 4 3 4 2 3 2 3 1 5 10 12 11 9 9 11 13 12 6 1 2 2 4 5 7 9
Wind_Direction
2 357 357 353 351 349 346 342 338 330 322 308 307 315 303 312 314 303 268 238 175 209 227 213 198 183 197 222 243 283 249 245 245 251 246 125 212 162 7 255 185 170 322 90 145
357 353 352 349 347 347 344 340 333 331 327 320 316 316 306 309 308 287 253 216 180 203 218 208 206 186 199 224 214 223 243 256 319 264 265 178 242 204 236 218 216 210 144 143 156
349 349 346 344 343 341 339 336 331 330 327 320 314 314 314 318 298 329 168 173 193 193 230 240 231 207 231 216 214 211 244 309 270 275 277 259 245 229 247 256 252 239 199 172 177
344 340 341 339 338 336 334 333 330 324 323 321 311 317 313 299 290 110 160 185 205 209 204 207 218 214 239 215 215 252 244 268 285 253 262 253 278 253 240 252 301 297 297 172 197
335 333 334 333 331 330 327 328 325 318 317 313 309 316 299 243 251 157 203 207 207 215 226 224 234 244 249 247 232 236 268 268 268 260 259 272 257 265 267 266 259 238 234 214 210
334 330 327 328 326 326 326 324 321 313 309 301 303 298 259 261 184 169 178 204 221 213 222 231 269 284 290 252 235 354 267 267 265 250 241 253 264 257 260 276 255 247 226 230 224
329 328 325 323 323 324 323 321 317 309 305 300 283 264 261 250 188 194 183 213 208 221 229 248 286 237 324 249 249 271 274 266 249 242 243 278 263 242 247 266 252 240 237 240 226
322 322 323 322 321 319 321 320 316 310 300 281 234 236 261 198 236 217 197 182 176 180 232 159 235 270 247 351 245 256 245 267 95 157 159 210 266 104 124 204 232 230 213 222 222
328 318 316 322 320 317 316 318 314 299 278 239 206 218 260 186 215 207 199 192 163 149 122 134 228 253 195 231 246 218 260 211 190 181 181 218 282 80 152 214 249 248 243 237 231
326 327 316 314 317 317 316 320 301 259 234 200 241 255 234 232 166 181 187 183 173 158 174 210 231 237 218 221 220 254 223 254 259 157 208 242 254 266 256 250 262 256 266 267 98
328 329 330 327 319 317 322 321 238 206 210 233 191 240 181 144 156 192 172 176 180 205 228 187 239 226 233 225 252 294 286 276 276 217 260 257 268 273 273 264 260 252 258 145 104
326 323 318 314 318 313 309 272 336 337 285 258 253 261 235 195 187 188 181 195 200 220 207 195 239 250 319 292 259 253 262 264 275 4 237 271 277 274 281 301 315 286 274 108 150
328 326 320 311 316 303 280 287 294 292 261 278 232 234 217 215 222 196 195 211 212 221 200 236 43 103 175 205 231 241 253 265 283 303 258 282 274 231 175 173 185 121 170 140 119
333 334 334 316 303 319 292 333 295 259 269 254 202 231 191 206 217 203 197 190 204 224 220 247 149 210 246 251 242 257 329 273 275 280 283 160 291 214 191 188 210 160 148 149 118
331 329 329 324 297 293 293 325 322 258 265 74 131 79 166 187 129 182 174 188 200 185 201 125 175 194 227 247 198 351 25 262 277 275 313 244 235 175 164 223 182 172 148 142 135
327 323 329 318 278 278 286 313 267 236 228 161 136 180 173 212 186 136 172 217 352 211 233 270 98 240 251 94 257 106 242 241 259 269 250 190 216 257 155 183 143 136 148 73 35
328 319 313 292 271 304 307 203 221 248 157 169 195 183 197 189 172 173 171 178 175 168 214 213 222 137 201 192 173 208 215 231 210 201 263 177 214 289 134 131 106 121 14 340 350
326 322 311 297 281 285 318 244 206 325 220 95 287 190 205 183 190 192 170 179 216 249 179 232 197 190 171 230 272 198 211 287 296 274 26 171 237 146 108 113 111 123 280 330 333
332 322 319 325 308 219 1 237 226 13 312 282 128 184 189 216 187 187 214 219 132 191 208 200 176 118 135 179 268 156 215 19 296 228 264 236 201 156 153 156 173 134 35 352 335
332 325 328 331 270 191 249 284 261 5 329 346 288 221 203 180 202 195 190 26 131 98 27 110 232 184 121 185 212 271 116 171 205 255 246 234 253 217 167 160 148 8 2 338 335
340 327 25 3 348 147 259 248 284 293 287 303 238 297 293 140 197 217 241 115 103 139 141 144 244 123 165 207 190 168 205 220 307 265 288 293 180 9 110 90 341 331 354 335 317
324 320 13 350 262 248 248 262 348 313 339 292 269 101 286 129 182 224 165 128 138 140 163 130 236 242 191 84 335 301 246 208 248 167 229 302 284 104 111 80 333 339 343 326 309
326 287 313 49 290 258 270 273 269 296 47 302 297 211 223 190 156 211 114 96 116 114 120 163 198 230 206 164 202 232 209 199 219 293 243 261 202 164 151 266 103 331 336 322 314
323 312 306 10 278 307 315 278 272 351 296 256 356 349 286 202 112 196 116 127 116 57 1 17 265 273 289 33 77 205 216 211 203 235 254 231 270 209 272 227 21 38 337 321 324
348 309 345 319 328 317 296 313 311 321 357 338 340 268 238 177 155 210 98 115 130 62 57 3 271 256 282 283 266 252 246 224 223 238 261 273 300 338 312 343 37 319 326 334 339
304 306 317 288 305 309 289 287 317 313 281 305 286 277 203 15 46 170 109 162 179 127 155 50 272 320 288 272 271 267 255 243 235 242 263 271 275 287 26 103 66 5 342 342 340
338 14 289 289 311 309 326 332 315 130 66 360 286 167 154 62 61 77 79 71 89 141 184 234 287 284 278 298 301 265 242 233 238 243 252 261 280 334 6 16 32 341 345 339 339